HST,Max TemperatureF,Mean TemperatureF,Min TemperatureF,Max Dew PointF,MeanDew PointF,Min DewpointF,Max Humidity, Mean Humidity, Min Humidity, Max Sea Level PressureIn, Mean Sea Level PressureIn, Min Sea Level PressureIn, Max VisibilityMiles, Mean VisibilityMiles, Min VisibilityMiles, Max Wind SpeedMPH, Mean Wind SpeedMPH, Max Gust SpeedMPH,PrecipitationIn, CloudCover, Events, WindDirDegrees
2012-9-1,83,76,68,69,67,63,90,72,54,30.11,30.08,30.04,10,9,2,15,6,17,0.16,7,Rain,242
2012-9-2,81,75,68,70,67,63,90,76,62,30.12,30.07,30.03,10,9,1,20,5,24,0.18,7,Rain,273
2012-9-3,84,76,67,68,66,63,93,72,51,30.13,30.06,30.02,10,8,2,16,8,18,0.25,7,Rain,262
2012-9-4,83,76,68,69,65,59,90,74,58,30.13,30.08,30.04,10,10,10,13,5,16,0.02,5,Rain,220
2012-9-5,80,74,67,70,66,61,93,80,67,30.12,30.07,30.02,10,9,2,14,5,17,0.07,7,Rain,243
2012-9-6,83,75,67,68,66,62,93,74,55,30.05,30.01,29.96,10,10,10,17,6,21,0.04,4,Rain,168
2012-9-7,84,75,66,69,65,58,90,73,55,30.03,29.99,29.95,10,10,10,16,8,21,T,5,Rain,194
2012-9-8,84,77,70,70,68,63,84,73,62,30.11,30.05,29.99,10,9,3,15,6,18,0.03,7,Rain,174
2012-9-9,81,75,68,72,69,64,93,80,67,30.14,30.09,30.05,10,8,2,16,4,20,0.62,7,Rain,262
2012-9-10,82,75,67,69,66,62,93,80,67,30.12,30.08,30.03,10,10,10,22,6,24,0.13,6,Rain,281
2012-9-11,84,76,68,67,65,62,90,74,58,30.08,30.04,29.99,10,10,9,12,5,16,0.02,7,Rain,278
2012-9-12,83,75,66,70,65,61,90,72,54,30.08,30.03,29.99,10,9,4,20,5,23,0.04,7,Rain,301
2012-9-13,81,74,67,70,66,63,100,81,62,30.09,30.05,30.00,10,9,2,17,6,22,0.12,7,Rain,243
2012-9-14,83,76,68,68,65,62,87,71,54,30.10,30.05,29.99,10,10,10,14,6,20,T,7,Rain,229
2012-9-15,84,76,68,68,66,64,93,74,55,30.07,30.03,29.98,10,9,3,17,6,23,0.08,6,Rain,149
2012-9-16,83,75,67,68,66,62,90,71,51,30.08,30.05,29.99,10,10,2,16,6,18,0.03,5,Rain,275
2012-9-17,81,73,65,70,66,61,93,78,62,30.07,30.02,29.96,10,8,2,15,7,16,0.20,6,Rain,250
2012-9-18,83,74,65,68,65,57,87,71,54,30.02,29.98,29.92,10,10,8,16,7,21,T,6,Rain,171
2012-9-19,83,75,66,72,67,63,93,81,69,30.03,29.98,29.94,10,10,9,10,5,16,0.00,6,Rain,190
2012-9-20,85,76,66,70,68,64,93,77,61,30.07,30.01,29.96,10,10,10,20,6,25,0.00,4,,145
2012-9-21,84,76,67,68,66,61,90,74,58,30.06,30.03,29.96,10,10,5,13,5,17,0.03,5,Rain,226
2012-9-22,84,77,69,70,68,66,90,76,62,30.04,30.01,29.96,10,10,8,12,6,15,0.03,6,Rain,294
2012-9-23,85,77,69,72,70,66,97,79,61,30.06,30.02,29.98,10,9,2,17,6,23,0.12,7,Rain,278
2012-9-24,85,77,69,70,68,66,97,80,62,30.08,30.04,29.98,10,9,2,15,6,18,0.07,6,Rain,309
2012-9-25,82,76,69,70,68,66,97,80,62,30.09,30.04,29.98,10,9,2,17,5,24,0.11,7,Rain,235
2012-9-26,85,77,69,70,68,66,90,78,65,30.08,30.04,29.97,10,8,2,15,6,18,0.05,7,Rain,266
2012-9-27,83,77,70,70,69,65,100,81,62,30.06,30.04,30.00,10,8,2,12,6,16,0.65,7,Rain,301
2012-9-28,84,77,69,70,66,61,90,73,55,30.05,30.01,29.96,10,10,2,20,7,23,0.09,6,Rain,229
2012-9-29,85,78,70,70,66,59,84,68,51,30.05,30.00,29.96,10,10,9,14,7,18,0.02,6,Rain,170
2012-9-30,80,75,69,70,67,65,90,76,62,30.04,29.99,29.94,10,10,4,12,6,14,0.03,7,Rain,243